Stations météo

Publicité
Clermont-Ferrand, France (7460): Température de l'air & dewpoint: 20.05.2019 09:00:00 - 26.05.2019 09:00:00 (CEST)Clermont-Ferrand, France (7460): Température de l'air 5cm: 20.05.2019 09:00:00 - 26.05.2019 09:00:00 (CEST)Clermont-Ferrand, France (7460): Température de l'air -20cm & Température de l'air -100cm: 20.05.2019 09:00:00 - 26.05.2019 09:00:00 (CEST)Clermont-Ferrand, France (7460): Vitesse du vent & gusts: 20.05.2019 09:00:00 - 26.05.2019 09:00:00 (CEST)Clermont-Ferrand, France (7460): Direction du vent: 20.05.2019 09:00:00 - 26.05.2019 09:00:00 (CEST)Clermont-Ferrand, France (7460): reduced air pressure: 20.05.2019 09:00:00 - 26.05.2019 09:00:00 (CEST)Clermont-Ferrand, France (7460): visibility: 20.05.2019 09:00:00 - 26.05.2019 09:00:00 (CEST)Clermont-Ferrand, France (7460): Ensoleillement: 20.05.2019 09:00:00 - 26.05.2019 09:00:00 (CEST)Clermont-Ferrand, France (7460): Quantités de précipitations: 20.05.2019 09:00:00 - 26.05.2019 09:00:00 (CEST)
Date & Time tt [°C] td [°C] tt 5cm [°C] tt -20cm [°C] tt -100cm [°C] ff [km/h] ff [knt] fx [km/h] fx [knt] dd ppp [hPa] vv [km] sd [min] rr [mm]
26.05.2019 09:00:00 - - - - - - - - - - - - - -
26.05.2019 08:00:00 15,5 10,7 14,2 15,9 13,3 3 2 8 4 NNE 1018,7 27 60 0,0
26.05.2019 07:00:00 13,3 10,7 11,7 15,8 13,2 5 3 7 4 ESE 1019,1 23 30 0,0
26.05.2019 06:00:00 12,5 10,2 11,0 15,9 13,3 4 2 8 4 E 1018,9 25 0 0,0
26.05.2019 05:00:00 12,7 10,1 10,7 15,9 13,2 7 4 9 5 E 1018,8 27 0 0,0
26.05.2019 04:00:00 14,5 9,7 13,0 15,8 13,2 4 2 13 7 N 1018,8 38 0 0,0
26.05.2019 03:00:00 15,0 9,8 13,5 15,8 13,2 8 4 22 12 WNW 1018,6 50 0 0,0
26.05.2019 02:00:00 15,5 9,4 14,5 15,8 13,2 8 5 22 12 NW 1019,0 55 0 0,0
26.05.2019 01:00:00 16,1 9,5 14,3 15,7 13,2 13 7 23 13 NNW 1019,2 49 0 0,0
26.05.2019 00:00:00 15,8 10,3 12,9 15,7 13,2 8 4 18 10 NW 1019,1 8 0 0,0
25.05.2019 23:00:00 15,8 9,9 12,9 15,7 13,2 7 4 14 8 WNW 1019,1 45 0 0,0
25.05.2019 22:00:00 16,8 9,5 15,2 15,7 13,2 9 5 20 11 NNW 1018,5 27 0 0,0
25.05.2019 21:00:00 17,8 8,9 16,8 15,6 13,2 11 6 23 12 NNW 1017,6 56 4 0,0
25.05.2019 20:00:00 18,6 9,9 18,6 15,6 13,2 11 6 28 15 NNW 1017,3 44 0 0,0
25.05.2019 19:00:00 19,2 9,9 19,3 15,6 13,2 15 8 27 15 N 1016,9 32 0 0,0
25.05.2019 18:00:00 18,7 12,0 18,4 15,6 13,2 8 5 18 10 NE 1016,7 34 4 0,0
25.05.2019 17:00:00 18,2 12,4 17,7 15,6 13,2 4 2 24 13 N 1016,9 20 0 0,2
25.05.2019 16:00:00 18,7 12,0 21,6 15,6 13,2 16 9 30 16 N 1016,9 30 37 0,0
25.05.2019 15:00:00 17,8 13,5 16,7 15,6 13,2 11 6 23 13 NW 1017,3 7 5 0,2
25.05.2019 14:00:00 17,0 12,7 16,2 15,6 13,2 15 8 30 16 NNE 1017,9 9 0 0,6
25.05.2019 13:00:00 17,1 12,8 14,6 15,6 13,1 15 8 29 16 W 1017,9 7 10 3,7
25.05.2019 12:00:00 20,7 11,6 26,3 15,6 13,1 6 3 21 12 ENE 1017,4 30 52 0,0
25.05.2019 11:00:00 19,2 11,0 25,3 15,6 13,1 9 5 18 10 NNE 1017,7 11 54 0,0
25.05.2019 10:00:00 17,6 11,2 18,8 15,6 13,1 8 4 15 8 NE 1017,8 21 27 0,0
25.05.2019 09:00:00 15,7 10,7 17,7 15,6 13,1 5 3 9 5 ENE 1017,8 31 55 0,0
25.05.2019 08:00:00 13,1 10,8 7,7 15,6 13,1 2 1 8 4 W 1017,9 20 36 0,0
25.05.2019 07:00:00 9,3 7,7 4,3 15,6 13,1 3 2 8 5 WSW 1018,2 22 15 0,0
25.05.2019 06:00:00 9,5 7,6 4,2 15,6 13,1 5 3 6 4 ESE 1018,0 22 0 0,0
25.05.2019 05:00:00 10,5 8,6 4,7 15,6 13,1 2 1 5 3 ENE 1017,3 32 0 0,0
25.05.2019 04:00:00 11,5 8,7 8,2 15,6 13,1 6 3 11 6 ESE 1017,2 40 0 0,0
25.05.2019 03:00:00 12,6 9,1 11,1 15,5 13,1 8 4 10 5 E 1017,0 26 0 0,0
25.05.2019 02:00:00 15,3 9,2 12,8 15,5 13,1 5 3 15 8 N 1016,8 60 0 0,0
25.05.2019 01:00:00 16,1 9,0 13,9 15,4 13,1 6 3 18 10 NW 1016,8 59 0 0,0
25.05.2019 00:00:00 16,5 9,4 15,1 15,4 13,1 9 5 28 15 NW 1016,5 60 0 0,0
24.05.2019 23:00:00 17,0 9,7 15,3 15,3 13,1 13 7 29 16 NNW 1016,2 57 0 0,0
24.05.2019 22:00:00 18,4 9,2 17,5 15,3 13,1 14 8 28 15 NNW 1015,4 58 0 0,0
24.05.2019 21:00:00 19,5 5,9 18,7 15,3 13,1 14 8 35 19 NNW 1014,6 60 0 0,0
24.05.2019 20:00:00 20,2 6,2 20,1 15,2 13,1 19 11 38 20 N 1013,9 38 0 0,0
24.05.2019 19:00:00 21,3 6,4 21,4 15,2 13,1 18 10 44 24 N 1013,4 46 0 0,0
24.05.2019 18:00:00 21,9 4,9 22,4 15,1 13,0 19 10 37 20 N 1013,2 23 8 0,0
24.05.2019 17:00:00 23,6 5,5 25,9 15,1 13,1 18 10 54 29 N 1012,8 48 19 0,0
24.05.2019 16:00:00 23,5 5,8 26,0 15,1 13,0 16 9 38 21 N 1012,9 47 24 0,0
24.05.2019 15:00:00 22,3 4,8 25,8 15,1 13,0 17 9 39 21 NNE 1013,7 25 32 0,0
24.05.2019 14:00:00 23,4 7,9 27,0 15,1 13,0 19 10 37 20 N 1014,0 26 55 0,0
24.05.2019 13:00:00 23,1 6,4 27,5 15,1 13,0 13 7 29 16 N 1014,1 40 53 0,0
24.05.2019 12:00:00 22,4 7,0 30,5 15,1 13,0 12 7 27 15 NE 1014,6 33 60 0,0
24.05.2019 11:00:00 21,3 7,1 29,0 15,1 13,0 9 5 24 13 NE 1015,3 33 60 0,0
24.05.2019 10:00:00 19,6 7,3 25,4 15,1 13,0 6 3 12 7 NE 1015,5 47 60 0,0
24.05.2019 09:00:00 18,0 8,0 19,7 15,1 13,0 4 2 9 5 E 1015,8 41 60 0,0
24.05.2019 08:00:00 14,0 7,5 5,6 15,1 13,0 2 1 5 3 ESE 1016,1 32 56 0,0
24.05.2019 07:00:00 9,9 5,9 3,8 15,1 13,0 3 1 5 3 SSE 1016,4 39 0 0,0
24.05.2019 06:00:00 9,1 6,0 4,1 15,1 13,0 5 3 8 4 N 1016,3 54 0 0,0
24.05.2019 05:00:00 11,0 6,5 6,0 15,0 13,0 6 3 8 4 ENE 1015,9 56 0 0,0
24.05.2019 04:00:00 11,9 6,4 7,1 15,0 13,0 3 2 6 3 ENE 1015,8 57 0 0,0
24.05.2019 03:00:00 12,3 6,6 6,3 15,0 13,0 4 2 9 5 W 1016,0 60 0 0,0
24.05.2019 02:00:00 12,0 6,3 7,4 14,9 13,0 5 3 6 3 W 1016,4 60 0 0,0
24.05.2019 01:00:00 12,1 5,9 7,2 14,8 13,0 3 2 7 4 S 1016,5 59 0 0,0
24.05.2019 00:00:00 15,2 5,7 8,9 14,8 13,0 3 2 14 7 E 1016,1 60 0 0,0
23.05.2019 23:00:00 16,9 5,2 11,0 14,7 13,0 8 5 15 8 NW 1016,1 60 0 0,0
23.05.2019 22:00:00 18,2 4,0 12,6 14,6 13,0 8 4 16 9 NNW 1015,6 60 0 0,0
23.05.2019 21:00:00 19,9 3,6 18,3 14,6 13,0 10 6 19 10 N 1015,0 60 51 0,0
23.05.2019 20:00:00 20,9 3,6 21,1 14,5 13,0 11 6 25 13 NNE 1014,3 54 26 0,0
23.05.2019 19:00:00 22,7 3,2 26,1 14,5 13,0 15 8 31 17 NNE 1014,1 48 54 0,0
23.05.2019 18:00:00 23,7 4,6 27,7 14,5 13,0 16 8 31 17 NE 1014,0 54 39 0,0
23.05.2019 17:00:00 24,5 3,2 30,9 14,4 13,0 12 6 24 13 NNE 1014,0 37 56 0,0
23.05.2019 16:00:00 24,6 2,1 32,8 14,4 13,0 9 5 33 18 ENE 1014,3 39 60 0,0
23.05.2019 15:00:00 24,0 2,7 33,3 14,5 13,0 9 5 22 12 ENE 1015,1 37 60 0,0
23.05.2019 14:00:00 22,8 1,2 31,7 14,5 13,0 8 4 19 11 N 1015,8 24 60 0,0
23.05.2019 13:00:00 21,4 3,1 29,9 14,5 13,0 8 4 20 11 E 1016,7 32 60 0,0
23.05.2019 12:00:00 20,6 5,0 30,0 14,5 13,0 5 3 16 8 NNW 1017,4 35 60 0,0
23.05.2019 11:00:00 19,7 6,8 26,7 14,5 13,0 3 2 9 5 E 1017,7 49 60 0,0
23.05.2019 10:00:00 17,0 6,8 21,7 14,6 13,0 3 2 11 6 E 1018,2 29 60 0,0
23.05.2019 09:00:00 14,1 6,9 14,8 14,6 13,0 3 2 9 5 ESE 1018,8 47 60 0,0
23.05.2019 08:00:00 10,8 6,3 6,1 14,6 12,9 2 1 7 4 NE 1019,2 26 60 0,0
23.05.2019 07:00:00 8,4 5,7 1,6 14,6 13,0 0 0 10 5 N 1019,4 18 27 0,0
23.05.2019 06:00:00 6,6 4,4 0,5 14,6 12,9 4 2 7 4 N 1019,6 16 0 0,0
23.05.2019 05:00:00 6,4 4,1 1,0 14,6 12,9 0 0 4 2 N 1019,6 26 0 0,0
23.05.2019 04:00:00 8,0 5,3 1,5 14,5 12,9 2 1 5 3 WSW 1019,6 26 0 0,0
23.05.2019 03:00:00 8,5 5,2 1,5 14,5 12,9 3 1 6 3 ESE 1019,5 28 0 0,0
23.05.2019 02:00:00 9,4 5,8 2,3 14,5 12,9 5 3 8 4 W 1019,7 33 0 0,0
23.05.2019 01:00:00 10,4 6,0 3,6 14,4 12,9 4 2 7 4 WSW 1019,8 41 0 0,0
23.05.2019 00:00:00 10,4 5,8 4,7 14,4 12,9 3 1 6 3 SSW 1019,9 49 0 0,0
22.05.2019 23:00:00 14,6 6,2 7,3 14,3 12,9 3 1 10 5 ESE 1019,4 55 0 0,0
22.05.2019 22:00:00 16,1 6,0 9,0 14,3 12,9 8 4 16 9 NNW 1019,0 56 0 0,0
22.05.2019 21:00:00 17,2 6,7 13,1 14,2 12,9 7 4 26 14 NNE 1018,4 60 24 0,0
22.05.2019 20:00:00 19,5 4,4 19,8 14,1 12,9 14 8 30 16 NNE 1017,8 32 33 0,0
22.05.2019 19:00:00 20,7 2,5 22,1 14,1 12,9 15 8 32 18 NE 1017,5 43 31 0,0
22.05.2019 18:00:00 21,7 3,8 26,2 14,1 12,9 16 8 33 18 NE 1017,4 41 54 0,0
22.05.2019 17:00:00 22,6 5,5 23,7 14,1 12,9 22 12 36 20 NE 1017,6 51 38 0,0
22.05.2019 16:00:00 21,3 6,0 25,5 14,1 12,9 16 8 33 18 NNE 1017,9 44 33 0,0
22.05.2019 15:00:00 21,9 6,5 25,4 14,1 12,9 11 6 28 15 NNE 1018,0 54 30 0,0
22.05.2019 14:00:00 21,9 7,3 26,9 14,1 12,9 12 7 29 16 NNE 1018,2 18 47 0,0
22.05.2019 13:00:00 21,2 7,1 24,4 14,1 12,9 11 6 30 16 NNE 1018,8 45 53 0,0
22.05.2019 12:00:00 18,9 6,7 28,4 14,1 12,9 11 6 37 20 N 1019,3 34 58 0,0
22.05.2019 11:00:00 18,1 7,8 25,7 14,2 12,9 6 3 18 10 NW 1019,5 31 60 0,0
22.05.2019 10:00:00 16,2 9,1 22,9 14,2 12,9 6 4 18 10 NNE 1019,9 20 60 0,0
22.05.2019 09:00:00 14,7 9,1 15,8 14,2 12,9 3 2 8 4 E 1020,0 16 60 0,0
22.05.2019 08:00:00 11,7 9,1 5,5 14,3 12,9 2 1 4 2 E 1020,4 9 43 0,0
22.05.2019 07:00:00 7,1 5,7 1,6 14,3 12,9 3 2 6 3 E 1020,6 9 0 0,0
22.05.2019 06:00:00 6,6 5,2 1,0 14,3 12,9 0 0 5 3 N 1020,3 10 0 0,0
22.05.2019 05:00:00 6,9 5,4 1,2 14,3 12,9 0 0 8 5 N 1020,1 13 0 0,0
22.05.2019 04:00:00 8,2 6,7 1,5 14,3 12,9 4 2 10 5 W 1019,9 17 0 0,0
22.05.2019 03:00:00 7,2 5,7 1,6 14,3 12,9 3 2 4 2 W 1020,0 19 0 0,0
22.05.2019 02:00:00 7,7 5,7 2,4 14,2 12,9 3 1 6 3 WSW 1019,8 21 0 0,0
22.05.2019 01:00:00 8,3 5,9 3,1 14,2 12,9 2 1 6 3 SSE 1019,9 21 0 0,0
22.05.2019 00:00:00 12,4 7,1 4,6 14,2 12,9 2 1 14 7 S 1019,2 20 0 0,0
21.05.2019 23:00:00 12,9 7,1 5,4 14,1 12,9 7 4 14 8 NW 1018,9 18 0 0,0
21.05.2019 22:00:00 13,3 6,6 5,8 14,1 12,9 4 2 15 8 N 1018,2 42 0 0,0
21.05.2019 21:00:00 16,2 6,6 14,5 14,1 12,9 11 6 25 13 N 1017,3 58 53 0,0
21.05.2019 20:00:00 18,0 7,1 19,6 14,1 12,9 16 8 29 16 NNE 1016,4 36 58 0,0
21.05.2019 19:00:00 19,0 6,8 21,0 14,1 12,9 18 10 38 20 N 1016,1 39 50 0,0
21.05.2019 18:00:00 19,4 6,8 20,6 14,0 12,9 18 10 36 19 N 1016,1 37 48 0,0
21.05.2019 17:00:00 18,4 8,1 20,3 14,0 12,9 18 10 42 23 N 1016,4 51 6 0,0
21.05.2019 16:00:00 18,8 7,2 20,8 14,0 12,9 19 10 45 25 NE 1016,3 51 22 0,0
21.05.2019 15:00:00 18,3 7,7 19,1 14,0 12,9 22 12 38 21 N 1016,2 38 6 0,0
21.05.2019 14:00:00 17,1 9,3 15,8 13,9 12,9 9 5 29 16 NW 1016,3 20 0 0,2
21.05.2019 13:00:00 17,9 10,0 21,9 14,0 12,9 8 4 23 12 N 1016,2 14 42 0,0
21.05.2019 12:00:00 15,5 11,5 17,6 14,0 12,9 12 7 25 13 N 1016,7 8 5 0,0
21.05.2019 11:00:00 14,4 11,7 13,2 14,0 12,8 11 6 19 10 N 1016,8 10 0 0,0
21.05.2019 10:00:00 13,4 10,9 13,2 14,0 12,9 12 6 19 10 N 1016,6 2,4 0 0,2
21.05.2019 09:00:00 12,8 10,7 12,5 14,0 12,9 5 3 9 5 ENE 1016,3 9 0 0,0
21.05.2019 08:00:00 12,6 10,8 11,5 14,0 12,9 3 2 6 4 ESE 1015,7 8 0 0,0
21.05.2019 07:00:00 11,9 10,3 11,1 14,0 12,8 2 1 6 3 S 1015,5 8 0 0,2
21.05.2019 06:00:00 12,2 9,9 11,3 13,9 12,8 5 3 7 4 NE 1015,2 8 0 0,2
21.05.2019 05:00:00 12,3 9,7 11,4 14,0 12,9 5 3 6 4 ESE 1015,0 10 0 0,0
21.05.2019 04:00:00 12,3 9,5 11,4 14,0 12,9 5 3 6 3 ESE 1015,0 10 0 0,0
21.05.2019 03:00:00 12,1 9,5 10,7 13,9 12,8 4 2 5 3 E 1015,0 11 0 0,0
21.05.2019 02:00:00 11,9 9,3 10,0 13,9 12,8 3 2 5 3 E 1015,3 12 0 0,0
21.05.2019 01:00:00 11,6 8,8 9,2 13,9 12,9 3 2 6 3 SSE 1015,2 12 0 0,0
21.05.2019 00:00:00 12,0 8,7 7,5 13,9 12,8 4 2 5 3 E 1014,9 14 0 0,0
20.05.2019 23:00:00 12,6 8,1 7,7 13,9 12,9 3 1 13 7 N 1014,9 19 0 0,0
20.05.2019 22:00:00 14,0 8,0 12,9 13,9 12,8 8 5 19 10 NNW 1014,2 23 0 0,0
20.05.2019 21:00:00 15,2 8,0 14,6 13,8 12,9 10 5 21 11 NNW 1013,2 30 0 0,0
20.05.2019 20:00:00 15,6 8,3 16,0 13,8 12,8 9 5 24 13 NNW 1012,7 34 6 0,0
20.05.2019 19:00:00 15,9 8,1 16,1 13,8 12,8 12 7 24 13 NW 1012,3 31 0 0,0
20.05.2019 18:00:00 15,2 9,5 14,2 13,8 12,8 6 4 17 9 N 1012,3 15 0 0,0
20.05.2019 17:00:00 14,6 10,0 13,1 13,8 12,8 13 7 23 13 NNE 1012,3 8 0 0,0
20.05.2019 16:00:00 14,2 9,8 13,0 13,7 12,8 9 5 36 19 NNE 1012,1 7 0 0,6
20.05.2019 15:00:00 17,4 6,6 19,0 13,7 12,8 16 8 33 18 NNW 1011,3 37 12 0,0
20.05.2019 14:00:00 16,8 6,6 19,5 13,7 12,8 10 5 39 21 WNW 1011,2 32 13 0,0
20.05.2019 13:00:00 17,2 6,7 19,2 13,8 12,8 17 9 38 21 WNW 1011,0 16 9 0,0
20.05.2019 12:00:00 16,9 7,8 19,6 13,7 12,8 18 10 36 19 W 1010,9 13 26 0,0
20.05.2019 11:00:00 16,2 7,4 19,0 13,8 12,8 20 11 38 21 WNW 1011,1 12 57 0,0
20.05.2019 10:00:00 15,0 7,8 13,6 13,8 12,8 18 10 28 15 W 1010,9 11 12 0,0
20.05.2019 09:00:00 13,1 8,2 13,0 13,8 12,8 14 8 25 14 NW 1011,1 24 0 0,0

tt = Température de l'air
td = dewpoint
tt 5cm = Température de l'air 5cm
tt -20cm = Température de l'air -20cm
tt -100cm = Température de l'air -100cm
ff = Vitesse du vent
fx = gusts
dd = Direction du vent
ppp = reduced air pressure
vv = visibility
sd = Ensoleillement
rr = Quantités de précipitations

stations d'obs. à proximité